Flag for Australia Weather past 2 weeks in The Settlement, Christmas Island, Australia

Now
75 °F

Broken clouds.


Feels Like: 76 °F
Forecast: 74 / 78 °F
Wind: 13 mph from Southeast

Location: Christmas Island Aerodrome

Current Time: Jul 29, 2014 at 8:41:00 AM

Latest Report: Jul 29, 2014 at 8:00 AM


Visibility: N/A

Pressure: 30.01 "Hg

Humidity: 78%

Dew point: 68 °F

Location of The SettlementLocation

Historic Weather in The Settlement — Graph

°F

The Settlement temperature yesterday

Maximum temperature yesterday: 79 °F (at 10:00 AM)
Minimum temperature yesterday: 73 °F (at 12:00 AM)
Average temperature yesterday: 75 °F

Past Weeks' High & Low Weather Summary

 TemperatureHumidityPressure
High79 °F (Jul 15, 1:00 PM)100% (Jul 18, 7:00 AM)30.07 "Hg (Jul 18, 7:00 AM)
Low72 °F (Jul 23, 7:00 PM)54% (Jul 15, 12:00 PM)29.89 "Hg (Jul 16, 3:00 PM)
Average75 °F81%29.96 "Hg
* Reported Jul 14 7:00 AM — Jul 29 7:00 AM, The Settlement, Weather by CustomWeather, © 2014

Note: Actual official high and low records may vary slightly from our data, if they occured in-between our weather recording intervals... More about our weather records

Advertising

The Settlement weather history for previous 24 hours

 ConditionsComfort  
Time TempWeatherWind HumidityBarometerVisibility
7:00 AM
Jul 29
75 °FMostly cloudy.13 mph74%29.98 "HgN/A
6:00 AM73 °FPassing clouds.12 mph78%29.98 "HgN/A
5:00 AM73 °FPassing clouds.15 mph78%29.95 "HgN/A
4:04 AM73 °FMostly cloudy.13 mph78%29.95 "HgN/A
3:00 AM73 °FPassing clouds.14 mph78%29.95 "HgN/A
2:00 AM73 °FPassing clouds.14 mph83%29.95 "HgN/A
1:00 AM73 °FPassing clouds.13 mph78%29.98 "HgN/A
12:00 AM73 °FMostly cloudy.15 mph78%29.98 "HgN/A
11:00 PM
Jul 28
73 °FMostly cloudy.15 mph83%29.98 "HgN/A
10:00 PM73 °FPartly cloudy.14 mph83%29.98 "HgN/A
9:00 PM73 °FPartly cloudy.15 mph83%29.98 "HgN/A
8:00 PM75 °FPassing clouds.16 mph74%29.98 "HgN/A
7:00 PM73 °FPassing clouds.15 mph83%29.95 "HgN/A
6:00 PM75 °FPassing clouds.17 mph74%29.95 "HgN/A
5:00 PM75 °FPartly sunny.17 mph78%29.95 "HgN/A
4:00 PM75 °FPartly sunny.17 mph78%29.92 "HgN/A
3:00 PM77 °FPartly sunny.17 mph69%29.95 "HgN/A
2:00 PM79 °FScattered clouds.20 mph65%29.95 "HgN/A
1:00 PM79 °FScattered clouds.20 mph65%29.98 "HgN/A
12:00 PM77 °FMostly cloudy.20 mph74%30.01 "HgN/A
11:03 AM77 °FPartly sunny.18 mph74%30.01 "HgN/A
10:00 AM79 °FMostly cloudy.18 mph70%30.04 "HgN/A
9:00 AM75 °FPartly sunny.18 mph74%30.04 "HgN/A
8:00 AM75 °FBroken clouds.20 mph78%30.01 "HgN/A
Weather by CustomWeather, © 2014

See weather overviewHow to use our weather pages